Regional Weather Roundup
Issued by NWS

Home | Current Version | Previous Version | Text Only | Print | Product List | Glossary On
Versions: 1 2 3 4 5 6 7 8 9 10 11 12 13 14 15 16 17 18 19 20 21 22 23 24 25 26 27 28 29 30 31 32 33 34 35 36 37 38 39 40 41 42 43 44 45 46 47 48 49 50
744
ASUS44 KJAN 290010
RWRMS

MISSISSIPPI HOURLY WEATHER ROUNDUP
NATIONAL WEATHER SERVICE JACKSON MS
700 PM CDT TUE MAR 28 2017

NOTE: "FAIR: INDICATES FEW OR NO CLOUDS BELOW 12,000 FEET WITH NO
SIGNIFICANT WEATHER AND/OR OBSTRUCTIONS TO VISIBILITY.

MSZ001>002-007>008-010>013-018>021-025>028-034>036-290100-
NORTHWEST MISSISSIPPI

CITY           SKY/WX    TMP DP  RH WIND       PRES   REMARKS
BATESVILLE     FAIR      78  57  48 CALM      29.93R
CLEVELAND      FAIR      78  66  65 E5        29.89S
GREENWOOD      CLEAR     80  63  55 CALM      29.90S
6HR MIN TEMP:  77; 6HR MAX TEMP:  83;

GREENVILLE     CLEAR     77  61  57 S6        29.88F
6HR MIN TEMP:  76; 6HR MAX TEMP:  81;

OLIVE BRANCH   PTCLDY   N/A N/A N/A NE5       29.94R
OXFORD         FAIR      75  55  50 NE5       29.95R
TUNICA         PTCLDY    73  55  53 N8        29.93S
WINONA         FAIR      77  64  63 CALM      29.91S
$$

MSZ003>006-009-014>017-022>024-029>033-037>039-290100-
NORTHEAST MISSISSIPPI

CITY           SKY/WX    TMP DP  RH WIND       PRES   REMARKS
COLUMBUS AFB   PTCLDY    77  62  59 CALM      29.91S
6HR MIN TEMP:  77; 6HR MAX TEMP:  84;

CORINTH        FAIR      73  54  49 NE7       29.95R
GOLDN TRIANGLE MOCLDY    79  61  53 CALM      29.88R
STARKVILLE     CLOUDY    77  63  61 CALM      29.93R
TUPELO         CLEAR     75  58  55 NE7       29.94R
6HR MIN TEMP:  75; 6HR MAX TEMP:  80;

$$

MSZ040-058-290100-
CENTRAL MISSISSIPPI

CITY           SKY/WX    TMP DP  RH WIND       PRES   REMARKS
JACKSON INTL   PTCLDY    78  65  63 SE5       29.91R
6HR MIN TEMP:  77; 6HR MAX TEMP:  85;

JACKSON HAWKNS CLEAR     79  62  56 S3        29.91R
6HR MIN TEMP:  78; 6HR MAX TEMP:  85;

MADISON        FAIR      73  63  68 CALM      29.91S
MERIDIAN KEY   CLEAR     78  68  71 CALM      29.93R
6HR MIN TEMP:  78; 6HR MAX TEMP:  85;

MERIDIAN NAS   PTCLDY    80  59  48 CALM      29.93R
6HR MIN TEMP:  80; 6HR MAX TEMP:  85;

RAYMOND        FAIR      77  66  69 CALM      29.90S
VICKSBURG VKS  PTCLDY    81  64  57 CALM      29.86F
$$

MSZ059>079-290100-
SOUTH MISSISSIPPI

CITY           SKY/WX    TMP DP  RH WIND       PRES   REMARKS
BROOKHAVEN     FAIR      82  63  51 CALM      29.93S
HATTIESBURG    PTCLDY    78  65  63 S8        29.94R
6HR MIN TEMP:  78; 6HR MAX TEMP:  85;

MCCOMB         CLEAR     78  63  59 S9        29.92R
6HR MIN TEMP:  78; 6HR MAX TEMP:  85;

NATCHEZ        NOT AVBL
PINE BELT      MOCLDY    75  66  73 S6        29.94R
6HR MIN TEMP:  75; 6HR MAX TEMP:  84;

$$

MSZ080>082-290100-
COASTAL MISSISSIPPI

CITY           SKY/WX    TMP DP  RH WIND       PRES   REMARKS
BAY ST LOUIS   CLEAR     73  64  73 S7        29.96S
BILOXI         PTCLDY    74  69  85 S9        29.96S
6HR MIN TEMP:  74; 6HR MAX TEMP:  80;

PASCAGOULA     CLEAR     73  65  75 S5        29.97R
6HR MIN TEMP:  73; 6HR MAX TEMP:  81;

GULFPORT       CLEAR     75  68  78 S9        29.96S
6HR MIN TEMP:  75; 6HR MAX TEMP:  80;

$$

LAZ007>009-015>016-023>026-290100-
NORTHEAST LOUISIANA

CITY           SKY/WX    TMP DP  RH WIND       PRES   REMARKS
BASTROP        FAIR      80  64  59 CALM      29.86F
TALLULAH/VBURG CLEAR     79  64  60 SE6       29.88S
6HR MIN TEMP:  79; 6HR MAX TEMP:  84;

VIDALIA        FAIR      81  63  54 S7        29.87S
$$




USA.gov is the U.S. government's official web portal to all federal, state and local government web resources and services.